| time (UTC) | temp F | wind direction | speed MPH | gust MPH | rain 1hr in | rain 24hr in | rain mn in | humidity % | barometer mb |
| 20260506033052 | 39 | 350 | 2.0 | 5.0 | 0.00 | 0.00 | 0.00 | 41 | 1020.6 |
| 20260506031549 | 39 | 346 | 2.0 | 5.0 | 0.00 | 0.00 | 0.00 | 40 | 1020.5 |
| 20260506030049 | 41 | 349 | 3.0 | 6.0 | 0.00 | 0.00 | 0.00 | 38 | 1020.3 |
| 20260506024549 | 42 | 13 | 3.0 | 6.0 | 0.00 | 0.00 | 0.00 | 37 | 1020.1 |
| 20260506023149 | 44 | 360 | 2.0 | 8.0 | 0.00 | 0.00 | 0.00 | 35 | 1020.1 |
| 20260506021555 | 45 | 360 | 4.0 | 9.0 | 0.00 | 0.00 | 0.00 | 33 | 1020.0 |
| 20260506020048 | 46 | 360 | 6.0 | 14.0 | 0.00 | 0.00 | 0.00 | 32 | 1019.8 |
| 20260506014546 | 46 | 5 | 9.0 | 15.0 | 0.00 | 0.00 | 0.00 | 32 | 1019.8 |
| 20260506013045 | 47 | 334 | 6.0 | 12.0 | 0.00 | 0.00 | 0.00 | 31 | 1019.8 |
| 20260506011544 | 47 | 5 | 8.0 | 16.0 | 0.00 | 0.00 | 0.00 | 31 | 1019.7 |
| 20260506010054 | 48 | 12 | 8.0 | 17.0 | 0.00 | 0.00 | 0.00 | 29 | 1019.5 |
| 20260506004549 | 48 | 355 | 9.0 | 15.0 | 0.00 | 0.00 | 0.00 | 30 | 1019.6 |
| 20260506003043 | 48 | 15 | 7.0 | 18.0 | 0.00 | 0.00 | 0.00 | 30 | 1019.6 |
| 20260506001546 | 49 | 355 | 6.0 | 20.0 | 0.00 | 0.00 | 0.00 | 32 | 1019.5 |
| 20260506000042 | 48 | 325 | 9.0 | 17.0 | 0.00 | 0.00 | 0.00 | 31 | 1019.4 |
| 20260505234601 | 48 | 355 | 10.0 | 18.0 | 0.00 | 0.00 | 0.00 | 31 | 1019.5 |
| 20260505233042 | 49 | 336 | 10.0 | 15.0 | 0.00 | 0.00 | 0.00 | 30 | 1019.4 |
| 20260505231539 | 49 | 331 | 7.0 | 16.0 | 0.00 | 0.00 | 0.00 | 31 | 1019.3 |
| 20260505230039 | 48 | 32 | 9.0 | 19.0 | 0.00 | 0.00 | 0.00 | 32 | 1019.3 |
| 20260505224537 | 49 | 319 | 12.0 | 19.0 | 0.00 | 0.00 | 0.00 | 31 | 1019.3 |
| 20260505223040 | 48 | 340 | 10.0 | 20.0 | 0.00 | 0.00 | 0.00 | 32 | 1019.4 |
| 20260505221536 | 47 | 343 | 10.0 | 18.0 | 0.00 | 0.00 | 0.00 | 34 | 1019.4 |
| 20260505220040 | 47 | 340 | 14.0 | 19.0 | 0.00 | 0.00 | 0.00 | 33 | 1019.4 |
| 20260505214559 | 48 | 338 | 9.0 | 20.0 | 0.00 | 0.00 | 0.00 | 32 | 1019.4 |
| 20260505213036 | 47 | 11 | 9.0 | 19.0 | 0.00 | 0.00 | 0.00 | 34 | 1019.5 |
| 20260505211535 | 47 | 336 | 8.0 | 18.0 | 0.00 | 0.00 | 0.00 | 34 | 1019.6 |
| 20260505210034 | 47 | 5 | 11.0 | 21.0 | 0.00 | 0.00 | 0.00 | 35 | 1019.8 |
| 20260505204537 | 46 | 343 | 10.0 | 19.0 | 0.00 | 0.00 | 0.00 | 37 | 1019.8 |
| 20260505203038 | 46 | 336 | 9.0 | 19.0 | 0.00 | 0.00 | 0.00 | 37 | 1019.8 |
| 20260505201536 | 48 | 328 | 7.0 | 15.0 | 0.00 | 0.00 | 0.00 | 36 | 1019.8 |
| 20260505200029 | 46 | 5 | 8.0 | 18.0 | 0.00 | 0.00 | 0.00 | 37 | 1019.8 |
| 20260505194533 | 46 | 345 | 10.0 | 16.0 | 0.00 | 0.00 | 0.00 | 39 | 1019.7 |
| 20260505193028 | 46 | 315 | 8.0 | 20.0 | 0.00 | 0.00 | 0.00 | 39 | 1019.6 |
| 20260505191528 | 47 | 304 | 8.0 | 19.0 | 0.00 | 0.00 | 0.00 | 39 | 1019.7 |
| 20260505190026 | 45 | 355 | 9.0 | 15.0 | 0.00 | 0.00 | 0.00 | 40 | 1019.7 |
| 20260505184527 | 45 | 328 | 12.0 | 21.0 | 0.00 | 0.00 | 0.00 | 40 | 1019.6 |
| 20260505183023 | 45 | 329 | 9.0 | 19.0 | 0.00 | 0.00 | 0.00 | 42 | 1019.8 |
| 20260505181522 | 45 | 13 | 10.0 | 17.0 | 0.00 | 0.00 | 0.00 | 43 | 1019.8 |
| 20260505180041 | 44 | 17 | 7.0 | 18.0 | 0.00 | 0.00 | 0.00 | 44 | 1019.9 |
| 20260505174544 | 44 | 346 | 9.0 | 17.0 | 0.00 | 0.00 | 0.00 | 43 | 1019.9 |
| 20260505173023 | 44 | 12 | 13.0 | 19.0 | 0.00 | 0.00 | 0.00 | 43 | 1020.0 |
| 20260505171522 | 43 | 19 | 10.0 | 18.0 | 0.00 | 0.00 | 0.00 | 46 | 1020.0 |
| 20260505170016 | 43 | 31 | 9.0 | 15.0 | 0.00 | 0.00 | 0.00 | 47 | 1020.2 |
| 20260505164516 | 42 | 355 | 10.0 | 18.0 | 0.00 | 0.00 | 0.00 | 50 | 1020.3 |
| 20260505163019 | 41 | 360 | 6.0 | 11.0 | 0.00 | 0.00 | 0.00 | 51 | 1020.3 |
| 20260505161509 | 41 | 321 | 6.0 | 10.0 | 0.00 | 0.00 | 0.00 | 52 | 1020.3 |
| 20260505153004 | 39 | 348 | 7.0 | 16.0 | 0.00 | 0.00 | 0.00 | 53 | 1020.3 |
| 20260505151503 | 39 | 10 | 6.0 | 13.0 | 0.00 | 0.00 | 0.00 | 55 | 1020.3 |
| 20260505124546 | 31 | 337 | 2.0 | 4.0 | 0.00 | 0.00 | 0.00 | 70 | 1019.4 |
| 20260505123044 | 31 | 360 | 4.0 | 8.0 | 0.00 | 0.00 | 0.00 | 69 | 1019.2 |
| 20260505121540 | 32 | 62 | 4.0 | 9.0 | 0.00 | 0.00 | 0.00 | 67 | 1019.0 |
| 20260505120041 | 33 | 346 | 4.0 | 8.0 | 0.00 | 0.00 | 0.00 | 66 | 1018.6 |
| 20260505114537 | 33 | 334 | 4.0 | 11.0 | 0.00 | 0.00 | 0.00 | 67 | 1018.4 |
| 20260505113033 | 33 | 340 | 3.0 | 7.0 | 0.00 | 0.00 | 0.00 | 68 | 1018.4 |
| 20260505111530 | 32 | 319 | 4.0 | 6.0 | 0.00 | 0.00 | 0.00 | 69 | 1018.4 |
| 20260505101532 | 32 | 311 | 2.0 | 4.0 | 0.00 | 0.00 | 0.00 | 67 | 1018.2 |
| 20260505100023 | 34 | 311 | 1.0 | 5.0 | 0.00 | 0.00 | 0.00 | 66 | 1018.1 |
| 20260505094520 | 34 | 298 | 1.0 | 2.0 | 0.00 | 0.00 | 0.00 | 66 | 1017.9 |
| 20260505093031 | 33 | 304 | 2.0 | 4.0 | 0.00 | 0.00 | 0.00 | 67 | 1017.9 |
| 20260505091523 | 31 | 296 | 1.0 | 3.0 | 0.00 | 0.00 | 0.00 | 68 | 1017.9 |
| 20260505090015 | 31 | 296 | 0.0 | 1.0 | 0.00 | 0.00 | 0.00 | 67 | 1017.8 |
| 20260505084513 | 32 | 296 | 0.0 | 2.0 | 0.00 | 0.00 | 0.00 | 65 | 1017.7 |
| 20260505083013 | 32 | 293 | 1.0 | 5.0 | 0.00 | 0.00 | 0.00 | 65 | 1017.7 |
| 20260505081508 | 33 | 313 | 1.0 | 3.0 | 0.00 | 0.00 | 0.00 | 64 | 1017.5 |
| 20260505080007 | 33 | 313 | 1.0 | 3.0 | 0.00 | 0.00 | 0.00 | 64 | 1017.3 |
| 20260505074503 | 33 | 313 | 0.0 | 4.0 | 0.00 | 0.00 | 0.00 | 64 | 1017.4 |
| 20260505073001 | 33 | 299 | 0.0 | 2.0 | 0.00 | 0.00 | 0.00 | 63 | 1017.2 |
| 20260505071605 | 34 | 298 | 1.0 | 3.0 | 0.00 | 0.00 | 0.00 | 60 | 1017.2 |
| 20260505070058 | 36 | 318 | 0.0 | 2.0 | 0.00 | 0.00 | 0.00 | 60 | 1017.1 |
| 20260505064554 | 35 | 323 | 1.0 | 4.0 | 0.00 | 0.00 | 0.00 | 61 | 1017.3 |
| 20260505063114 | 34 | 298 | 0.0 | 4.0 | 0.00 | 0.00 | 0.00 | 61 | 1017.0 |
| 20260505061617 | 34 | 298 | 1.0 | 3.0 | 0.00 | 0.00 | 0.00 | 62 | 1017.0 |
| 20260505060055 | 34 | 298 | 0.0 | 3.0 | 0.00 | 0.00 | 0.00 | 61 | 1016.8 |
| 20260505054546 | 34 | 340 | 0.0 | 2.0 | 0.00 | 0.00 | 0.00 | 61 | 1016.9 |
| 20260505053044 | 34 | 340 | 0.0 | 3.0 | 0.00 | 0.00 | 0.00 | 60 | 1016.6 |
| 20260505051601 | 34 | 340 | 0.0 | 1.0 | 0.00 | 0.00 | 0.00 | 56 | 1016.4 |
| 20260505041528 | 40 | 340 | 2.0 | 5.0 | 0.00 | 0.00 | 0.00 | 50 | 1016.0 |
| 20260505040025 | 41 | 28 | 3.0 | 8.0 | 0.00 | 0.00 | 0.00 | 49 | 1015.6 |
| 20260505034518 | 42 | 28 | 3.0 | 8.0 | 0.00 | 0.00 | 0.00 | 47 | 1015.4 |